Location: Asheville, NC
(35.6000°N, 82.5500°W)
Time: 19:45:58
(UTC-04:00)

LilacSat-2 - Pass Details

Date: 11 March 2018
Orbit: 514 x 537 km, 97.5° (Epoch: 23 June)

Event Time Altitude Azimuth Distance (km) Brightness Sun altitude
Rises 06:47:21 0° 26° (NNE) 2,672 ? -12.9°
Reaches altitude 10° 06:49:47 10° 41° (NE) 1,782 ? -12.4°
Maximum altitude 06:52:56 24° 96° (E) 1,128 ? -11.7°
Drops below altitude 10° 06:56:05 10° 151° (SSE) 1,779 ? -11.1°
Sets 06:58:30 0° 166° (SSE) 2,667 ? -10.6°
